Location: Northam
(31.6525°S, 116.6655°E)
Time: 18:22:38
(UTC+08:00)

AAUSAT CUBESAT 2 - Pass Details

Date: 31 July 2021
Orbit: 572 x 587 km, 97.5° (Epoch: 18 September)

Event Time Altitude Azimuth Distance (km) Brightness Sun altitude
Rises 05:04:46 0° 5° (N) 2,775 ? -25.1°
Reaches altitude 10° 05:06:55 10° 2° (N) 1,887 ? -24.7°
Enters shadow 05:08:35 24° 355° (N) 1,231 ? -24.3°
